McCook, NE

12:23 PM CST on February 20, 2017 (GMT -0600)
McCook Municipal

Weather History for KMCK - June, 2013

Change the Weather History Date:

Tuesday, June 18, 2013

  Actual Average Record
Temperature  
Mean Temperature 75 °F 71 °F  
Max Temperature 89 °F 85 °F 109 °F (2012)
Min Temperature 60 °F 57 °F 41 °F (1912)
Cooling Degree Days 10    
Growing Degree Days 24 (Base 50)    
Moisture  
Dew Point 57 °F    
Average Humidity 63    
Maximum Humidity 87    
Minimum Humidity 26    
Precipitation  
Precipitation 0.13 in 0.12 in 1.25 in (1975)
Month to date precipitation 0.45 2.05  
Year to date precipitation 5.34 9.99  
Sea Level Pressure  
Sea Level Pressure 30.00 in    
Wind  
Wind Speed 8 mph (ESE)    
Max Wind Speed 17 mph    
Max Gust Speed 25 mph    
Visibility 9 miles    
Events Rain , Thunderstorm    
T = Trace of Precipitation, MM = Missing Value Source: NWS Daily Summary

Daily Weather History Graph

Daily Weather History Graph

Search for Another Location

Airport or City:

Trip Planner

Search our weather history database for the weather conditions in past years. The results will help you decide how hot, cold, wet, or windy it might be!

Date:

Astronomy

Jun. 18, 2013 Rise Set
Actual Time 6:12 AM CDT 9:14 PM CDT
Civil Twilight 5:39 AM CDT 9:47 PM CDT
Nautical Twilight 4:57 AM CDT 10:29 PM CDT
Astronomical Twilight 4:08 AM CDT 11:18 PM CDT
Moon 4:01 PM CDT (6/18) 2:22 AM CDT (6/18)
Length of Visible Light 16h 08m
Length of Day
15h 02m
Waxing Gibbous, 71% of the Moon is Illuminated
Jun 18
Waxing Gibbous
Jun 23
Full
Jun 29
Last Quarter
Jul 8
New
Jul 15
First Quarter

Hourly Weather History & Observations

Time (CDT) Temp. Heat Index Dew Point Humidity Pressure Visibility Wind Dir Wind Speed Gust Speed Precip Events Conditions
12:53 AM 69.1 °F - 57.9 °F 68% 30.01 in 10.0 mi SSE 8.1 mph - N/A   Clear
1:53 AM 68.0 °F - 57.9 °F 70% 30.02 in 10.0 mi ESE 3.5 mph - N/A   Clear
2:53 AM 66.0 °F - 59.0 °F 78% 30.03 in 10.0 mi Calm Calm - N/A   Clear
3:53 AM 64.0 °F - 59.0 °F 84% 30.04 in 10.0 mi WNW 10.4 mph - N/A   Mostly Cloudy
4:53 AM 64.9 °F - 55.0 °F 70% 30.05 in 10.0 mi NNW 12.7 mph - 0.01 in   Overcast
5:16 AM 64.4 °F - 55.4 °F 73% 30.12 in 10.0 mi NNW 10.4 mph - N/A Thunderstorm Thunderstorm
5:53 AM 62.1 °F - 55.9 °F 80% 30.10 in 8.0 mi West 13.8 mph - 0.01 in Rain , Thunderstorm Light Thunderstorms and Rain
5:57 AM 60.8 °F - 55.4 °F 82% 30.13 in 1.8 mi North 11.5 mph 20.7 mph 0.10 in Rain , Thunderstorm Thunderstorms and Rain
6:06 AM 60.8 °F - 55.4 °F 82% 30.11 in 3.0 mi North 15.0 mph - 0.10 in Rain , Thunderstorm Light Thunderstorms and Rain
6:17 AM 60.8 °F - 55.4 °F 82% 30.10 in 10.0 mi NNE 9.2 mph - 0.10 in Thunderstorm Thunderstorm
6:29 AM 60.8 °F - 55.4 °F 82% 30.10 in 10.0 mi Variable 4.6 mph - 0.10 in   Mostly Cloudy
6:53 AM 61.0 °F - 57.0 °F 87% 30.05 in 10.0 mi East 9.2 mph - 0.10 in   Mostly Cloudy
7:53 AM 62.1 °F - 57.9 °F 86% 30.06 in 10.0 mi East 9.2 mph - 0.01 in   Clear
8:53 AM 64.9 °F - 60.1 °F 84% 30.05 in 10.0 mi ESE 5.8 mph - N/A   Clear
9:53 AM 66.9 °F - 60.1 °F 79% 30.04 in 10.0 mi Calm Calm - N/A   Clear
10:53 AM 71.1 °F - 61.0 °F 70% 30.02 in 10.0 mi WSW 3.5 mph - N/A   Clear
11:53 AM 78.1 °F - 62.1 °F 58% 30.00 in 10.0 mi Variable 4.6 mph - N/A   Clear
12:53 PM 82.9 °F 82.6 °F 57.9 °F 42% 29.98 in 10.0 mi West 8.1 mph - N/A   Clear
1:53 PM 84.9 °F - 52.0 °F 32% 29.95 in 10.0 mi Calm Calm - N/A   Clear
2:53 PM 89.1 °F - 50.0 °F 26% 29.93 in 10.0 mi Variable 4.6 mph - N/A   Clear
3:53 PM 89.1 °F 86.7 °F 53.1 °F 29% 29.91 in 10.0 mi ESE 9.2 mph - N/A   Clear
4:53 PM 87.1 °F 86.1 °F 57.9 °F 37% 29.89 in 10.0 mi ESE 16.1 mph - N/A   Clear
5:53 PM 84.9 °F 83.7 °F 55.9 °F 37% 29.89 in 10.0 mi East 17.3 mph 25.3 mph N/A   Clear
6:53 PM 84.0 °F 83.3 °F 57.0 °F 40% 29.88 in 10.0 mi ESE 17.3 mph 24.2 mph N/A   Clear
7:53 PM 81.0 °F - 52.0 °F 36% 29.89 in 10.0 mi SE 11.5 mph - N/A   Clear
8:53 PM 77.0 °F - 57.0 °F 50% 29.90 in 10.0 mi SE 13.8 mph 23.0 mph N/A   Clear
9:53 PM 73.0 °F - 59.0 °F 61% 29.91 in 10.0 mi ESE 10.4 mph - N/A   Clear
10:53 PM 71.1 °F - 55.9 °F 59% 29.94 in 10.0 mi SE 12.7 mph 20.7 mph N/A   Mostly Cloudy
11:53 PM 69.1 °F - 55.9 °F 63% 29.96 in 10.0 mi SSW 10.4 mph - N/A   Mostly Cloudy